Doylestown, PA

11:34 PM EDT on May 25, 2017 (GMT -0400)
Doylestown

Weather History for KDYL - January, 2014

Change the Weather History Date:

Monday, January 6, 2014

  Actual Average (KTTN) Record (KTTN)
Temperature  
Mean Temperature 34 °F -  
Max Temperature 57 °F 39 °F 72 °F (2007)
Min Temperature 8 °F 25 °F 5 °F (1904)
Degree Days  
Heating Degree Days 32    
Moisture  
Dew Point 37 °F    
Average Humidity 83    
Maximum Humidity 100    
Minimum Humidity 42    
Precipitation  
Precipitation 0.74 in - - ()
Sea Level Pressure  
Sea Level Pressure 29.59 in    
Wind  
Wind Speed 11 mph (WSW)    
Max Wind Speed 25 mph    
Max Gust Speed 37 mph    
Visibility 7 miles    
Events Fog , Rain , Snow    
Averages and records for this station are not official NWS values.
T = Trace of Precipitation, MM = Missing Value Source: NWS Daily Summary

Daily Weather History Graph

Daily Weather History Graph

Search for Another Location

Airport or City:

Trip Planner

Search our weather history database for the weather conditions in past years. The results will help you decide how hot, cold, wet, or windy it might be!

Date:

Astronomy

Jan. 06, 2014 Rise Set
Actual Time 7:23 AM EST 4:49 PM EST
Civil Twilight 6:53 AM EST 5:19 PM EST
Nautical Twilight 6:19 AM EST 5:53 PM EST
Astronomical Twilight 5:46 AM EST 6:26 PM EST
Moon 10:36 AM EST (1/6) 11:21 PM EST (1/6)
Length of Visible Light 10h 26m
Length of Day
9h 26m
Waxing Crescent, 34% of the Moon is Illuminated
Jan 6
Waxing Crescent
Jan 7
First Quarter
Jan 15
Full
Jan 24
Last Quarter
Jan 30
New

Hourly Weather History & Observations

Time (EST) Temp. Windchill Dew Point Humidity Pressure Visibility Wind Dir Wind Speed Gust Speed Precip Events Conditions
12:36 AM 45.0 °F 41.8 °F 45.0 °F 100% 29.67 in 0.2 mi SSE 5.8 mph - 0.13 in Fog , Rain Light Rain
12:54 AM 46.0 °F 41.9 °F 46.0 °F 100% 29.68 in 0.5 mi SSE 8.1 mph - 0.27 in Fog , Rain Light Rain
1:17 AM 48.0 °F - 48.0 °F 100% 29.64 in 0.2 mi Variable 4.6 mph - 0.13 in Fog Fog
1:54 AM 52.0 °F - 52.0 °F 100% 29.64 in 0.2 mi South 9.2 mph - 0.17 in Fog Fog
2:03 AM 52.0 °F - 52.0 °F 100% 29.62 in 0.5 mi South 10.4 mph - N/A Fog Fog
2:20 AM 53.1 °F - 53.1 °F 100% 29.61 in 1.8 mi South 9.2 mph 24.2 mph N/A   Overcast
2:36 AM 53.1 °F - 53.1 °F 100% 29.60 in 2.5 mi South 9.2 mph 19.6 mph N/A   Overcast
2:54 AM 54.0 °F - 54.0 °F 100% 29.60 in 2.5 mi South 9.2 mph 20.7 mph N/A   Overcast
3:01 AM 54.0 °F - 54.0 °F 100% 29.59 in 4.0 mi SSW 9.2 mph - N/A   Overcast
3:15 AM 54.0 °F - 54.0 °F 100% 29.58 in 2.0 mi South 8.1 mph - N/A   Overcast
3:32 AM 54.0 °F - 54.0 °F 100% 29.57 in 3.0 mi South 6.9 mph - N/A   Overcast
3:54 AM 54.0 °F - 54.0 °F 100% 29.55 in 5.0 mi South 9.2 mph 18.4 mph N/A   Overcast
4:08 AM 54.0 °F - 54.0 °F 100% 29.53 in 4.0 mi South 10.4 mph 19.6 mph N/A   Overcast
4:54 AM 55.0 °F - 55.0 °F 100% 29.52 in 6.0 mi South 8.1 mph - N/A   Overcast
5:54 AM 55.9 °F - 55.9 °F 100% 29.45 in 10.0 mi South 10.4 mph 20.7 mph N/A   Overcast
6:54 AM 57.0 °F - 57.0 °F 100% 29.42 in 10.0 mi South 16.1 mph 27.6 mph 0.03 in Rain Light Rain
7:16 AM 57.9 °F - 57.0 °F 97% 29.40 in 10.0 mi SSW 12.7 mph 23.0 mph 0.00 in Rain Light Rain
7:46 AM 50.0 °F - 50.0 °F 100% 29.46 in 2.5 mi West 20.7 mph 36.8 mph 0.20 in Rain Heavy Rain
7:54 AM 48.0 °F - 46.9 °F 96% 29.49 in 5.0 mi WNW 18.4 mph 34.5 mph 0.22 in Rain Light Rain
7:57 AM 46.9 °F - 46.0 °F 97% 29.48 in 7.0 mi West 23.0 mph 33.4 mph 0.00 in Rain Light Rain
8:11 AM 45.0 °F 38.5 °F 44.1 °F 97% 29.48 in 10.0 mi West 13.8 mph 29.9 mph 0.00 in Rain Light Rain
8:54 AM 43.0 °F 38.2 °F 41.0 °F 93% 29.53 in 10.0 mi West 8.1 mph 17.3 mph 0.01 in Rain Light Rain
9:54 AM 43.0 °F 37.7 °F 39.9 °F 89% 29.53 in 10.0 mi West 9.2 mph - 0.02 in   Overcast
10:47 AM 42.1 °F 33.6 °F 37.9 °F 85% 29.52 in 10.0 mi West 18.4 mph 26.5 mph 0.00 in Rain Light Rain
10:54 AM 41.0 °F 32.5 °F 37.0 °F 86% 29.53 in 10.0 mi WNW 17.3 mph 29.9 mph 0.00 in Rain Light Rain
11:18 AM 39.0 °F 30.3 °F 32.0 °F 76% 29.53 in 10.0 mi WNW 16.1 mph 29.9 mph 0.00 in Rain Light Rain
11:41 AM 37.0 °F 29.8 °F 32.0 °F 82% 29.53 in 10.0 mi WNW 10.4 mph 33.4 mph 0.01 in Snow Light Snow
11:54 AM 36.0 °F 29.6 °F 33.1 °F 89% 29.55 in 10.0 mi West 8.1 mph - 0.02 in Rain Light Rain
12:07 PM 35.1 °F 25.9 °F 30.0 °F 82% 29.53 in 10.0 mi West 13.8 mph 29.9 mph 0.00 in   Overcast
12:54 PM 36.0 °F 28.5 °F 27.0 °F 70% 29.55 in 10.0 mi West 10.4 mph 18.4 mph 0.00 in   Overcast
1:54 PM 36.0 °F 25.3 °F 23.0 °F 59% 29.54 in 10.0 mi NW 19.6 mph 28.8 mph N/A   Mostly Cloudy
2:54 PM 36.0 °F 26.3 °F 21.0 °F 55% 29.56 in 10.0 mi West 16.1 mph 27.6 mph N/A   Clear
3:54 PM 34.0 °F 25.0 °F 18.0 °F 52% 29.59 in 10.0 mi West 12.7 mph 28.8 mph N/A   Mostly Cloudy
4:54 PM 32.0 °F 22.5 °F 18.0 °F 56% 29.61 in 10.0 mi WNW 12.7 mph 25.3 mph N/A   Mostly Cloudy
5:54 PM 30.0 °F 19.5 °F 16.0 °F 56% 29.65 in 10.0 mi WNW 13.8 mph 23.0 mph N/A   Overcast
6:54 PM 28.0 °F 14.9 °F 12.0 °F 51% 29.70 in 10.0 mi WNW 19.6 mph 29.9 mph N/A   Partly Cloudy
7:54 PM 27.0 °F 17.3 °F 12.9 °F 56% 29.72 in 10.0 mi West 10.4 mph 28.8 mph N/A   Overcast
8:54 PM 21.9 °F 8.2 °F 7.0 °F 53% 29.77 in 10.0 mi West 16.1 mph 33.4 mph N/A   Partly Cloudy
9:54 PM 18.0 °F 4.8 °F 3.9 °F 54% 29.81 in 10.0 mi West 12.7 mph 31.1 mph N/A   Partly Cloudy
10:54 PM 10.9 °F -9.6 °F -6.0 °F 47% 29.86 in 10.0 mi WNW 25.3 mph 35.7 mph N/A   Clear
11:54 PM 8.1 °F -11.2 °F -11.0 °F 42% 29.91 in 10.0 mi West 19.6 mph 35.7 mph N/A   Clear